Home   Weather   Nuremberg   Past weeks

Flag for Germany Past Weather in Nuremberg, Bavaria, Germany — Yesterday and Last 2 Weeks

Now
61 °F

Clear.


Feels Like: 61 °F
Forecast: 55 / 72 °F
Wind: 2 mph from North

Location: Nuernberg

Current Time: Sep 30, 2016 at 12:20:42 AM

Latest Report: Sep 29, 2016 at 11:50 PM


Visibility: 10 mi

Pressure: 30.04 "Hg

Humidity: 72%

Dew Point: 52 °F

Location of NurembergLocation

Past Weather in Nuremberg — Graph

°F

Nuremberg Temperature Yesterday

Maximum temperature yesterday: 75 °F (at 2:50 PM)
Minimum temperature yesterday: 50 °F (at 6:50 AM)
Average temperature yesterday: 62 °F

High & Low Weather Summary for the Past Weeks

 TemperatureHumidityPressure
High86 °F (Sep 15, 2:20 PM)100% (Sep 17, 9:50 AM)30.39 "Hg (Sep 17, 9:50 AM)
Low41 °F (Sep 22, 5:50 AM)29% (Sep 15, 4:20 PM)29.83 "Hg (Sep 15, 3:50 PM)
Average59 °F80%30.11 "Hg
* Reported Sep 14 11:20 PM — Sep 29 11:20 PM, Nuremberg, Weather by CustomWeather, © 2016

Note: Actual official high and low records may vary slightly from our data, if they occured in-between our weather recording intervals... More about our weather records

Advertising

Nuremberg Weather History for the Previous 24 Hours

Scroll right to see more
 ConditionsComfort  
Time TempWeatherWind HumidityBarometerVisibility
11:20 PM
Thu, Sep 29
61 °FClear.2 mph72%30.04 "Hg10 mi
10:50 PM61 °FClear.2 mph72%30.04 "Hg10 mi
10:20 PM63 °FClear.3 mph68%30.04 "Hg10 mi
9:50 PM63 °FClear.2 mph68%30.04 "Hg10 mi
9:20 PM63 °FClear.2 mph68%30.04 "Hg10 mi
8:50 PM64 °FClear.2 mph64%30.04 "Hg10 mi
8:20 PM64 °FClear.1 mph64%30.04 "Hg10 mi
7:50 PM66 °FClear.1 mph60%30.04 "Hg10 mi
7:20 PM68 °FClear.1 mph56%30.04 "Hg10 mi
6:50 PM72 °FSunny.1 mph50%30.04 "Hg10 mi
6:20 PM72 °FSunny.5 mph50%30.04 "Hg10 mi
5:50 PM73 °FSunny.8 mph44%30.07 "Hg10 mi
5:20 PM73 °FSunny.9 mph44%30.07 "Hg10 mi
4:50 PM73 °FSunny.12 mph41%30.07 "Hg10 mi
4:20 PM73 °FPassing clouds.8 mph44%30.07 "HgN/A
3:50 PM75 °FPassing clouds.10 mph41%30.09 "HgN/A
3:20 PM75 °FPassing clouds.12 mph41%30.09 "HgN/A
2:50 PM75 °FPassing clouds.8 mph41%30.12 "HgN/A
2:20 PM73 °FPassing clouds.13 mph47%30.12 "HgN/A
1:50 PM73 °FPassing clouds.9 mph44%30.15 "HgN/A
1:20 PM73 °FPassing clouds.9 mph47%30.15 "HgN/A
12:50 PM72 °FPassing clouds.10 mph50%30.18 "HgN/A
12:20 PM70 °FPassing clouds.10 mph53%30.18 "HgN/A
11:50 AM70 °FPassing clouds.9 mph53%30.18 "HgN/A
11:20 AM68 °FPassing clouds.5 mph56%30.21 "HgN/A
10:50 AM66 °FPassing clouds.6 mph64%30.24 "HgN/A
10:20 AM64 °FPassing clouds.6 mph68%30.24 "HgN/A
9:50 AM63 °FPassing clouds.5 mph68%30.24 "HgN/A
9:20 AM61 °FPassing clouds.5 mph72%30.24 "HgN/A
8:50 AM57 °FSunny.5 mph88%30.24 "Hg10 mi
8:20 AM54 °FSunny.5 mph94%30.27 "Hg10 mi
7:50 AM50 °FSunny.5 mph100%30.27 "Hg10 mi
7:20 AM50 °FSunny.2 mph100%30.27 "Hg10 mi
6:50 AM50 °FClear.2 mph100%30.27 "Hg10 mi
6:20 AM52 °FClear.3 mph94%30.27 "Hg10 mi
5:50 AM54 °FClear.2 mph88%30.27 "Hg10 mi
5:20 AM52 °FClear.3 mph94%30.27 "Hg10 mi
4:50 AM52 °FClear.5 mph94%30.27 "Hg10 mi
4:20 AM52 °FClear.6 mph94%30.30 "Hg10 mi
3:50 AM52 °FClear.6 mph94%30.30 "Hg10 mi
3:20 AM52 °FClear.6 mph94%30.30 "Hg10 mi
2:50 AM54 °FClear.2 mph88%30.30 "Hg10 mi
2:20 AM54 °FClear.3 mph88%30.30 "Hg10 mi
1:50 AM54 °FClear.3 mph88%30.33 "Hg10 mi
1:20 AM54 °FClear.3 mph94%30.33 "Hg10 mi
12:50 AM54 °FClear.3 mph88%30.33 "Hg10 mi
12:20 AM54 °FClear.5 mph88%30.33 "Hg10 mi
Weather by CustomWeather, © 2016

See weather overviewHow to use our weather pages